Location: Galez
(43.1899°N, 0.4061°E)
Time: 09:47:12
(UTC+00:00)

Daily predictions for brighter satellites

Satellite Brightness Start Highest point End
(mag) Time Altitude Azimuth Time Altitude Azimuth Time Altitude Azimuth
Cosmos 1110 Rocket 4.4 18:42:59 10° N 18:48:02 45° ENE 18:53:01 10° SE
Cosmos 332 Rocket 3.9 18:44:25 10° NNW 18:49:20 64° ENE 18:54:11 10° SSE
SL-16 R/B 2.9 18:44:59 10° SSE 18:49:51 31° ESE 18:54:45 10° NE
Cosmos 2333 Rocket 3.9 18:44:55 10° WSW 18:50:09 37° WNW 18:55:25 10° N
STARLINK-1230 3.7 18:46:21 10° SW 18:50:18 58° SE 18:54:16 10° ENE
Cosmos 1892 Rocket 3.8 18:47:43 10° N 18:52:04 49° ENE 18:56:25 10° SSE
USA 186 3.1 18:50:50 10° SE 18:53:41 24° ENE 18:56:30 10° NNE
STARLINK-1234 3.5 18:50:44 10° WSW 18:53:41 55° NNW 18:56:39 10° NE
CSL-04 Rocket 3.9 18:48:44 10° S 18:54:03 77° WSW 18:59:22 10° NNW
ARGOS Delta rocket 4.4 18:49:49 10° SE 18:54:38 47° ENE 18:59:43 10° N
STARLINK-1096 4.5 18:50:55 10° NW 18:54:39 36° NNE 18:58:23 10° E
STARLINK-1243 3.6 18:51:00 10° SW 18:55:00 63° SE 18:58:59 10° ENE
Meteor 2-21 Rocket 4.4 18:49:32 10° N 18:55:37 82° E 19:01:41 10° S
Meteor 2-16 Rocket 4.5 18:50:07 10° N 18:56:16 70° E 19:02:24 10° SSE
NOSS 2-1 (E) 4.3 18:53:06 10° WSW 18:56:22 44° NW 18:59:53 10° NNE
Cosmos 1626 3.4 18:53:30 10° NNE 18:56:30 23° ENE 18:59:29 10° SE
STARLINK-1079 4.4 18:55:23 10° NW 18:59:09 38° NNE 19:02:49 11° E
STARLINK-1236 3.5 18:55:38 10° SW 18:59:38 69° SE 19:03:40 10° ENE
Okean 1-7 Rocket 3.7 18:55:42 10° N 19:00:00 51° ENE 19:04:16 10° SSE
Cosmos 1242 Rocket 4.1 18:57:04 10° NNW 19:00:18 38° W 19:03:33 10° SSW
STARLINK-1116 4.3 18:59:50 10° NW 19:03:39 40° NNE 19:07:08 12° E
SJ-11-01 4.3 18:59:51 10° SSE 19:04:28 64° ENE 19:09:09 10° N
H-2A R/B 2.3 19:00:24 10° SE 19:05:31 50° ENE 19:10:32 10° N
STARLINK-1269 3.5 19:05:01 10° SW 19:09:02 81° SE 19:13:05 10° NE
STARLINK-1118 2.1 19:07:39 10° WNW 19:09:51 68° SW 19:11:31 15° SE
Cosmos 1544 Rocket 3.8 19:07:12 10° SSE 19:11:21 45° E 19:15:36 10° NNE
STARLINK-1094 4.1 19:08:47 10° NW 19:12:40 45° NNE 19:15:46 15° E
HJ-1C 3.7 19:10:15 10° S 19:13:34 71° W 19:16:56 10° NNW
STARLINK-1200 3.5 19:09:41 10° SW 19:13:43 88° SSE 19:17:47 10° NE
Cosmos 1745 Rocket 4.0 19:07:53 10° N 19:14:14 88° E 19:20:28 10° S
Cosmos 2297 4.0 19:10:12 10° NNW 19:15:42 48° ENE 19:20:56 11° SE
USA 234 3.3 19:10:33 10° NE 19:17:00 57° SE 19:23:24 10° SSW
STARLINK-1117 4.0 19:13:17 10° NW 19:17:12 48° NNE 19:20:06 17° E
STARLINK-1192 3.6 19:14:19 10° SW 19:18:22 86° NW 19:22:26 10° NE
Meteor 2-5 Rocket 3.9 19:13:54 10° NNW 19:19:34 79° W 19:25:07 10° S
Cosmos 2237 Rocket 2.9 19:14:24 10° SW 19:19:56 58° WNW 19:25:31 10° NNE
Cosmos 1805 3.9 19:16:08 10° SSW 19:19:59 61° W 19:23:53 10° N
STARLINK-1078 3.9 19:17:46 10° NW 19:21:43 52° NNE 19:24:26 18° E
ADEOS Rocket 4.1 19:15:25 10° N 19:22:00 52° WNW 19:27:54 10° SW
STARLINK-1244 3.6 19:19:07 10° WSW 19:23:10 80° NW 19:27:14 10° NE
STARLINK-1201 4.1 19:20:31 10° WSW 19:23:39 44° NNW 19:26:49 10° NE
Cosmos 1302 Rocket 4.4 19:20:31 10° N 19:25:35 46° ENE 19:29:43 15° SE
STARLINK-1108 3.8 19:22:17 10° NW 19:26:15 55° NNE 19:28:47 21° ESE
Cosmos 1269 Rocket 3.9 19:22:00 10° SSW 19:27:16 76° ESE 19:32:34 10° NNE
STARLINK-1138 3.7 19:23:49 10° WSW 19:27:52 74° NNW 19:31:56 10° NE
Cosmos 2278 Rocket 3.5 19:22:34 10° NW 19:27:52 42° WSW 19:33:10 10° S
CZ-2C R/B 3.5 19:24:48 10° NE 19:29:03 25° E 19:32:38 13° SE
STARLINK-1066 2.8 19:27:32 10° NW 19:30:42 83° NE 19:32:18 26° ESE
STARLINK-1071 3.7 19:26:48 10° NW 19:30:47 59° NNE 19:33:08 23° ESE
STARLINK-1081 2.8 19:28:00 10° NW 19:31:08 83° NE 19:32:41 27° ESE
STARLINK-1070 2.8 19:28:27 10° NW 19:31:35 84° NE 19:33:06 27° ESE
STARLINK-1124 3.8 19:27:41 10° NW 19:31:48 61° NNE 19:34:14 23° ESE
STARLINK-1069 2.8 19:28:51 10° NW 19:32:01 85° NE 19:33:34 27° ESE
STARLINK-1085 2.8 19:29:18 10° NW 19:32:28 86° NE 19:34:00 28° ESE
STARLINK-1143 3.8 19:28:37 10° WSW 19:32:39 69° NW 19:36:42 10° NE
STARLINK-1086 2.8 19:29:48 10° NW 19:32:56 86° NNE 19:34:25 28° SE
STARLINK-1095 2.8 19:30:15 10° NW 19:33:23 87° NE 19:34:50 29° SE
CZ-4 R/B 4.4 19:31:15 10° SW 19:33:28 15° W 19:35:42 10° WNW
ARGOS 3.1 19:28:12 10° SSE 19:33:35 74° ENE 19:38:59 10° N
STARLINK-1077 2.8 19:30:41 10° NW 19:33:49 88° NNE 19:35:16 29° SE
STARLINK-1075 2.8 19:31:09 10° NW 19:34:16 89° NNE 19:35:42 29° SE
STARLINK-1093 2.8 19:31:33 10° NW 19:34:43 89° N 19:36:10 29° SE
Meteor 1-24 Rocket 3.8 19:29:22 10° NNW 19:34:55 79° W 19:40:15 10° S
STARLINK-1074 2.8 19:32:00 10° NW 19:35:10 90° SSW 19:36:36 30° SE
STARLINK-1110 3.7 19:31:18 10° NW 19:35:19 64° NNE 19:37:29 25° ESE
STARLINK-1087 2.8 19:32:30 10° NW 19:35:38 89° SW 19:37:00 30° SE
STARLINK-1088 2.8 19:32:57 10° NW 19:36:04 88° SW 19:37:26 31° SE
STARLINK-1115 2.8 19:33:22 10° NW 19:36:32 87° SW 19:37:55 31° SE
STARLINK-1076 2.8 19:33:48 10° NW 19:36:58 86° SW 19:38:20 31° SE
STARLINK-1092 2.8 19:34:16 10° NW 19:37:26 86° SW 19:38:47 31° SE
MOS 1 4.2 19:32:14 10° SSE 19:37:53 86° ENE 19:43:34 10° NNW
STARLINK-1080 2.8 19:34:45 10° NW 19:37:53 85° SW 19:39:10 32° SE
STARLINK-1090 2.8 19:35:12 10° NW 19:38:19 84° SW 19:39:36 32° SE
STARLINK-1089 2.8 19:35:39 10° NW 19:38:47 83° SW 19:40:02 33° SE
SL-24 R/B 4.4 19:34:36 10° NNE 19:38:57 42° E 19:42:47 10° SSE
STARLINK-1107 2.8 19:36:06 10° NW 19:39:14 82° SW 19:40:28 33° SE
Cosmos 1470 2.7 19:36:27 10° S 19:40:14 56° E 19:44:03 10° NNE
STARLINK-1241 4.1 19:39:09 10° WSW 19:43:07 58° NNW 19:47:05 10° NE
Cosmos 2315 Rocket 3.9 19:38:04 10° S 19:44:19 75° E 19:50:41 10° N
STARLINK-1122 3.5 19:40:27 10° NW 19:44:29 74° NE 19:46:17 31° ESE
SL-08 RB Rocket 3.6 19:40:53 14° SSE 19:44:46 68° ENE 19:49:18 10° N
SJ-6B 2.8 19:41:59 11° SSE 19:45:53 86° ENE 19:50:01 10° NNW
MetOp-A 4.3 19:42:29 17° SE 19:46:24 54° ENE 19:51:37 10° N
ISS -1.8 19:44:01 10° NW 19:46:43 22° N 19:48:11 17° NE
Resurs 1-3 4.0 19:44:44 26° SE 19:46:44 43° ENE 19:50:54 10° N
STARLINK-1239 4.2 19:43:46 10° WSW 19:47:42 54° NNW 19:51:30 11° NE
Cosmos 1758 3.3 19:44:04 10° S 19:48:07 65° E 19:52:11 10° NNE
STARLINK-1126 3.5 19:45:05 10° NW 19:49:07 79° NE 19:50:44 35° ESE
BREEZE M DEB (TANK) 4.5 19:39:04 10° SW 19:51:35 42° SSE 19:53:49 27° E
CZ-2C R/B 3.2 19:47:12 10° S 19:52:18 71° WSW 19:57:11 10° NNW
STARLINK-1240 4.3 19:48:24 10° WSW 19:52:19 50° NNW 19:55:56 12° NE
STARLINK-1082 3.4 19:49:38 10° NW 19:53:41 85° NE 19:55:08 39° ESE
Resurs 01 Rocket 2.2 19:53:04 32° E 19:54:08 36° ENE 19:58:10 10° N
FREGAT/IRIS 3.9 19:52:27 11° SSW 19:54:51 35° W 19:57:24 10° NNW
Abrixas rocket 2.9 19:52:08 10° SW 19:54:14 33° S 19:54:14 33° S
Cosmos 2369 Rocket 3.0 19:50:50 10° N 19:56:00 34° NE 19:57:50 27° E
STARLINK-1216 4.5 19:53:04 10° WSW 19:56:58 47° NNW 20:00:23 13° NE
STARLINK-1100 3.4 19:54:12 10° NW 19:58:16 89° SSW 19:59:31 43° SE
Meteor 2-15 Rocket 4.3 19:54:20 10° S 20:00:23 71° E 20:06:26 10° NNE
IRIDIUM 114 4.3 19:57:39 10° N 20:02:50 60° E 20:05:35 27° SSE
STARLINK-1083 3.5 19:58:49 10° NW 20:02:52 83° SW 20:03:57 47° SE
SPOT 3 Rocket 3.5 20:00:43 19° SSE 20:04:34 85° ENE 20:09:49 10° NNW
Cosmos 1726 3.8 20:06:30 22° NE 20:06:30 22° NE 20:08:08 10° NNE
SL-14 R/B 4.4 20:02:57 10° NNW 20:06:51 45° W 20:10:41 10° SSW
STARLINK-1125 3.5 20:03:26 10° WNW 20:07:29 77° SW 20:08:23 51° SE
Meteor 1-21 Rocket 4.2 20:03:36 10° N 20:09:09 63° ENE 20:11:31 34° SE
STARLINK-1109 3.6 20:07:45 10° WNW 20:11:47 71° SW 20:12:32 54° SSE
Cosmos 1709 Rocket 4.4 20:05:41 10° NNW 20:11:48 61° W 20:17:48 10° S
IRIDIUM 103 4.2 20:06:47 10° N 20:12:01 73° E 20:14:45 29° SSE
STARLINK-1097 4.5 20:09:53 10° NW 20:13:46 38° NNE 20:14:29 35° NE
MOS 1 Rocket 3.5 20:09:00 10° NNE 20:14:13 67° E 20:19:07 13° S
STARLINK-1091 3.7 20:12:26 10° WNW 20:16:28 65° SW 20:17:02 56° S
Cosmos 1943 4.3 20:19:28 26° ENE 20:19:28 26° ENE 20:22:20 10° NE
Cosmos 292 Rocket 3.9 20:13:51 10° NNW 20:18:34 54° ENE 20:19:07 51° E
STARLINK-1099 4.4 20:14:51 10° NW 20:18:47 40° NNE 20:19:17 38° NE
Cosmos 1943 Rocket 2.1 20:15:55 10° NNW 20:21:26 66° ENE 20:22:51 48° ESE
STARLINK-1104 4.3 20:19:50 10° NW 20:23:48 42° NNE 20:24:04 42° NE
Cosmos 2074 Rocket 3.9 20:18:06 10° N 20:24:22 68° E 20:26:45 39° SSE
STARLINK-1144 4.2 20:24:47 10° NW 20:28:47 45° NNE 20:28:50 45° NNE
STARLINK-1072 4.0 20:25:30 10° WNW 20:29:23 50° SW 20:29:27 50° SW
Cosmos 1953 2.3 20:29:29 63° SW 20:30:01 77° W 20:34:01 10° N
IRIDIUM 106 4.4 20:25:04 10° N 20:30:18 78° W 20:32:57 30° S
Meteor 2-10 3.9 20:28:33 38° S 20:30:38 74° E 20:36:08 10° NNE
NOSS 3-3 (A) 3.8 20:25:42 10° SSW 20:31:20 59° ESE 20:37:38 10° NE
NOSS 3-3 (C) 3.8 20:25:49 10° SSW 20:31:26 58° ESE 20:37:44 10° NE
Spot 2 Rocket 3.7 20:33:07 49° ENE 20:33:07 49° ENE 20:38:03 10° N
STARLINK-1103 4.2 20:29:44 10° NW 20:33:37 48° NNE 20:33:37 48° NNE
SL-16 R/B 3.5 20:28:29 10° SW 20:33:48 41° WNW 20:39:09 10° NNE
STARLINK-1096 4.2 20:30:00 10° WNW 20:33:44 45° SW 20:33:44 45° SW
Cosmos 2084 Rocket 3.7 20:31:04 10° NNW 20:35:19 61° NE 20:35:19 61° NE
STARLINK-1079 4.4 20:34:30 10° WNW 20:38:03 41° SW 20:38:03 41° SW
Cosmos 1610 Rocket 4.5 20:32:14 10° N 20:38:23 56° ENE 20:39:03 53° ESE
STARLINK-1101 4.2 20:34:43 10° NW 20:38:25 50° N 20:38:25 50° N
Aureole 3 4.4 20:38:26 22° SW 20:40:43 49° WNW 20:45:28 10° N
STARLINK-1102 4.3 20:39:41 10° NW 20:43:11 50° N 20:43:11 50° N
Aureole 2 Rocket 4.0 20:40:41 10° NNW 20:42:44 32° NNW 20:42:44 32° NNW
H-2A R/B 4.3 20:41:06 10° SW 20:45:09 22° W 20:49:11 10° NW
Terra 3.8 20:49:36 17° NE 20:49:36 17° NE 20:51:19 10° NNE
STARLINK-1111 4.4 20:44:39 10° NW 20:47:58 49° NNW 20:47:58 49° NNW
Cosmos 1603 3.5 20:53:25 45° SSW 20:55:17 89° E 21:00:56 10° NNE
Meteor 1-16 Rocket 4.1 20:54:16 58° SSW 20:55:19 80° W 21:00:47 10° N
ATLAS 2AS CENTAUR R/B 3.5 20:49:10 10° NNW 20:56:18 40° NE 20:57:41 37° ENE
Cosmos 1825 Rocket 4.1 20:54:09 10° NNW 20:57:50 57° NW 20:57:50 57° NW
USA 234 4.0 20:53:40 10° NE 20:59:56 51° NNW 21:06:11 10° WSW
MetOp-B 4.0 21:01:14 81° SW 21:01:22 82° WSW 21:06:46 10° NNW
Cosmos 2327 Rocket 4.4 20:56:14 10° N 21:02:32 89° W 21:03:23 69° S
CZ-2C R/B 3.7 21:04:39 10° N 21:09:30 41° WNW 21:14:10 11° SW
Cosmos 1992 Rocket 4.4 21:05:40 10° NNW 21:10:43 56° WSW 21:10:43 56° WSW
COSMOS 2455 4.3 21:06:27 10° N 21:11:09 24° NE 21:11:09 24° NE
Meteor 1-11 4.3 21:06:53 10° N 21:12:06 71° NNE 21:12:06 71° NNE
Cosmos 1295 Rocket 4.4 21:10:53 10° N 21:16:48 78° NE 21:16:48 78° NE
Meteor 2-17 Rocket 4.4 21:14:48 10° NNW 21:20:56 76° W 21:21:00 76° WSW
Cosmos 1656 Rocket 4.1 21:18:03 10° NNW 21:22:37 57° N 21:22:37 57° N
ISS -0.5 21:20:38 10° NW 21:21:09 14° NW 21:21:09 14° NW
ERS-1 Rocket 4.0 21:28:47 40° N 21:28:47 40° N 21:31:58 10° N
Resurs 01 Rocket 3.7 21:30:38 22° W 21:30:43 22° W 21:34:07 10° NW
Cosmos 2154 Rocket 4.4 21:29:48 10° NNW 21:36:01 57° W 21:36:22 56° WSW
Cosmos 2369 Rocket 3.3 21:34:49 10° NW 21:39:39 38° W 21:39:39 38° W
Cosmos 1943 4.5 22:01:06 37° WNW 22:01:15 37° WNW 22:06:29 10° N
Cosmos 1943 Rocket 4.3 22:01:00 10° WNW 22:04:25 18° W 22:04:25 18° W
NOSS 3-4 (A) 4.2 22:07:51 10° NW 22:13:24 60° NW 22:13:24 60° NW
NOSS 3-4 (C) 4.2 22:07:57 10° NW 22:13:29 60° NNW 22:13:29 60° NNW
Terra 4.3 22:28:29 19° NNW 22:28:29 19° NNW 22:29:52 10° NNW
ATLAS 2AS CENTAUR R/B 3.8 22:40:18 10° NW 22:45:08 39° WNW 22:45:08 39° WNW
